Time,TemperatureF,DewpointF,PressureIn,WindDirection,WindDirectionDegrees,WindSpeedMPH,WindSpeedGustMPH,Humidity,HourlyPrecipIn,Conditions,Clouds,dailyrainin,SolarRadiationWatts/m^2,SoftwareType,DateUTC
2013-05-26 00:03:00,68.5,64.0,29.96,SSE,164,0.0,0.0,85,0.00,,,0.00,0,Custom,2013-05-26 05:03:00,
2013-05-26 00:08:00,68.5,64.0,29.96,SSE,164,0.0,0.0,85,0.00,,,0.00,0,Custom,2013-05-26 05:08:00,
2013-05-26 00:13:00,68.7,64.0,29.96,SSE,164,0.0,0.0,85,0.00,,,0.00,0,Custom,2013-05-26 05:13:00,
2013-05-26 00:18:00,68.7,64.0,29.96,SSE,164,0.0,0.0,85,0.00,,,0.00,0,Custom,2013-05-26 05:18:00,
2013-05-26 00:23:00,68.7,64.0,29.96,SSE,164,0.0,0.0,85,0.00,,,0.00,0,Custom,2013-05-26 05:23:00,
2013-05-26 00:28:00,68.6,64.0,29.96,SSE,164,0.0,0.0,84,0.00,,,0.00,0,Custom,2013-05-26 05:28:00,
2013-05-26 00:33:00,68.6,64.0,29.96,SSE,164,0.0,1.0,85,0.00,,,0.00,0,Custom,2013-05-26 05:33:00,
2013-05-26 00:38:00,68.4,64.0,29.96,SSE,164,0.0,0.0,85,0.00,,,0.00,0,Custom,2013-05-26 05:38:00,
2013-05-26 00:43:00,68.4,64.0,29.96,SSE,164,0.0,1.0,85,0.00,,,0.00,0,Custom,2013-05-26 05:43:00,
2013-05-26 00:48:00,68.3,64.0,29.96,SSE,164,0.0,1.0,85,0.00,,,0.00,0,Custom,2013-05-26 05:48:00,
2013-05-26 00:53:00,68.3,64.0,29.96,SSE,164,0.0,3.0,85,0.00,,,0.00,0,Custom,2013-05-26 05:53:00,
2013-05-26 00:58:00,68.2,64.0,29.96,SSE,164,0.0,3.0,86,0.00,,,0.00,0,Custom,2013-05-26 05:58:00,
2013-05-26 01:03:00,68.1,64.0,29.96,SSE,164,0.0,1.0,86,0.00,,,0.00,0,Custom,2013-05-26 06:03:00,
2013-05-26 01:08:00,68.0,64.0,29.96,SSE,164,0.0,1.0,86,0.00,,,0.00,0,Custom,2013-05-26 06:08:00,
2013-05-26 01:13:00,68.0,64.0,29.96,SSE,164,0.0,1.0,86,0.00,,,0.00,0,Custom,2013-05-26 06:13:00,
2013-05-26 01:18:00,67.8,64.0,29.96,SSE,164,0.0,0.0,86,0.00,,,0.00,0,Custom,2013-05-26 06:18:00,
2013-05-26 01:23:00,67.8,63.0,29.96,SSE,164,0.0,2.0,86,0.00,,,0.00,0,Custom,2013-05-26 06:23:00,
2013-05-26 01:28:00,68.0,64.0,29.95,SSE,164,0.0,2.0,86,0.00,,,0.00,0,Custom,2013-05-26 06:28:00,
2013-05-26 01:33:00,68.1,64.0,29.95,SSE,164,0.0,3.0,86,0.00,,,0.00,0,Custom,2013-05-26 06:33:00,
2013-05-26 01:38:00,68.1,64.0,29.95,SSE,164,0.0,1.0,86,0.00,,,0.00,0,Custom,2013-05-26 06:38:00,
2013-05-26 01:43:00,67.5,63.0,29.95,SSE,164,0.0,0.0,86,0.00,,,0.00,0,Custom,2013-05-26 06:43:00,
2013-05-26 01:48:00,67.8,64.0,29.95,South,174,3.0,3.0,86,0.00,,,0.00,0,Custom,2013-05-26 06:48:00,
2013-05-26 01:53:00,67.9,64.0,29.94,South,174,0.0,3.0,87,0.00,,,0.00,0,Custom,2013-05-26 06:53:00,
2013-05-26 01:58:00,67.8,64.0,29.94,South,174,0.0,0.0,87,0.00,,,0.00,0,Custom,2013-05-26 06:58:00,
2013-05-26 02:03:00,68.0,64.0,29.94,South,181,0.0,1.0,87,0.00,,,0.00,0,Custom,2013-05-26 07:03:00,
2013-05-26 02:08:00,69.0,65.0,29.93,SSE,168,0.0,5.0,86,0.00,,,0.00,0,Custom,2013-05-26 07:08:00,
2013-05-26 02:13:00,69.0,65.0,29.94,South,175,0.0,3.0,86,0.00,,,0.00,0,Custom,2013-05-26 07:13:00,
2013-05-26 02:18:00,69.5,65.0,29.94,SSW,202,0.0,4.0,86,0.00,,,0.00,0,Custom,2013-05-26 07:18:00,
2013-05-26 02:23:00,69.7,65.0,29.93,South,174,0.0,4.0,85,0.00,,,0.00,0,Custom,2013-05-26 07:23:00,
2013-05-26 02:28:00,69.8,65.0,29.94,South,177,0.0,4.0,84,0.00,,,0.00,0,Custom,2013-05-26 07:28:00,
2013-05-26 02:33:00,69.8,65.0,29.94,SSE,155,2.0,6.0,84,0.00,,,0.00,0,Custom,2013-05-26 07:33:00,
2013-05-26 02:38:00,70.0,65.0,29.95,SSW,198,0.0,8.0,84,0.00,,,0.00,0,Custom,2013-05-26 07:38:00,
2013-05-26 02:43:00,69.9,65.0,29.95,South,171,4.0,4.0,84,0.00,,,0.00,0,Custom,2013-05-26 07:43:00,
2013-05-26 02:48:00,69.9,65.0,29.94,South,188,3.0,6.0,84,0.00,,,0.00,0,Custom,2013-05-26 07:48:00,
2013-05-26 02:53:00,69.8,65.0,29.95,SSW,194,0.0,5.0,84,0.00,,,0.00,0,Custom,2013-05-26 07:53:00,
2013-05-26 02:58:00,70.1,65.0,29.95,South,173,6.0,6.0,84,0.00,,,0.00,0,Custom,2013-05-26 07:58:00,
2013-05-26 03:03:00,70.1,65.0,29.95,South,185,3.0,8.0,83,0.00,,,0.00,0,Custom,2013-05-26 08:03:00,
2013-05-26 03:08:00,70.1,65.0,29.95,South,177,0.0,5.0,83,0.00,,,0.00,0,Custom,2013-05-26 08:08:00,
2013-05-26 03:13:00,69.8,65.0,29.95,South,188,0.0,5.0,83,0.00,,,0.00,0,Custom,2013-05-26 08:13:00,
2013-05-26 03:18:00,69.7,65.0,29.95,South,183,5.0,6.0,84,0.00,,,0.00,0,Custom,2013-05-26 08:18:00,
2013-05-26 03:23:00,69.9,65.0,29.95,South,186,5.0,5.0,83,0.00,,,0.00,0,Custom,2013-05-26 08:23:00,
2013-05-26 03:28:00,69.8,65.0,29.95,South,181,0.0,7.0,84,0.00,,,0.00,0,Custom,2013-05-26 08:28:00,
2013-05-26 03:33:00,69.9,65.0,29.95,South,185,0.0,7.0,84,0.00,,,0.00,0,Custom,2013-05-26 08:33:00,
2013-05-26 03:38:00,69.7,65.0,29.95,South,190,0.0,8.0,84,0.00,,,0.00,0,Custom,2013-05-26 08:38:00,
2013-05-26 03:43:00,69.6,65.0,29.94,South,190,0.0,3.0,84,0.00,,,0.00,0,Custom,2013-05-26 08:43:00,
2013-05-26 03:48:00,69.4,64.0,29.94,South,186,0.0,4.0,84,0.00,,,0.00,0,Custom,2013-05-26 08:48:00,
2013-05-26 03:53:00,69.3,64.0,29.95,South,187,0.0,3.0,84,0.00,,,0.00,0,Custom,2013-05-26 08:53:00,
2013-05-26 03:58:00,69.2,64.0,29.94,South,187,0.0,3.0,85,0.00,,,0.00,0,Custom,2013-05-26 08:58:00,
2013-05-26 04:03:00,68.9,64.0,29.94,SSW,197,3.0,4.0,85,0.00,,,0.00,0,Custom,2013-05-26 09:03:00,
2013-05-26 04:08:00,68.9,64.0,29.94,South,191,0.0,7.0,86,0.00,,,0.00,0,Custom,2013-05-26 09:08:00,
2013-05-26 04:13:00,68.9,64.0,29.93,South,179,0.0,5.0,86,0.00,,,0.00,0,Custom,2013-05-26 09:13:00,
2013-05-26 04:18:00,68.9,65.0,29.93,SSW,193,0.0,5.0,86,0.00,,,0.00,0,Custom,2013-05-26 09:18:00,
2013-05-26 04:23:00,68.7,64.0,29.92,South,182,0.0,4.0,86,0.00,,,0.00,0,Custom,2013-05-26 09:23:00,
2013-05-26 04:28:00,68.5,64.0,29.93,South,170,0.0,3.0,86,0.00,,,0.00,0,Custom,2013-05-26 09:28:00,
2013-05-26 04:33:00,68.1,64.0,29.92,South,171,3.0,4.0,86,0.00,,,0.00,0,Custom,2013-05-26 09:33:00,
2013-05-26 04:38:00,67.8,64.0,29.92,SSE,168,0.0,4.0,87,0.00,,,0.00,0,Custom,2013-05-26 09:38:00,
2013-05-26 04:43:00,67.5,64.0,29.92,South,171,0.0,4.0,87,0.00,,,0.00,0,Custom,2013-05-26 09:43:00,
2013-05-26 04:48:00,67.3,64.0,29.91,South,171,0.0,0.0,87,0.00,,,0.00,0,Custom,2013-05-26 09:48:00,
2013-05-26 04:53:00,67.1,64.0,29.91,South,184,0.0,4.0,88,0.00,,,0.00,0,Custom,2013-05-26 09:53:00,
2013-05-26 04:58:00,66.9,64.0,29.91,South,171,0.0,5.0,89,0.00,,,0.00,0,Custom,2013-05-26 09:58:00,
2013-05-26 05:03:00,66.7,63.0,29.91,South,171,0.0,4.0,89,0.00,,,0.00,0,Custom,2013-05-26 10:03:00,
2013-05-26 05:08:00,66.7,64.0,29.91,South,181,0.0,5.0,89,0.00,,,0.00,0,Custom,2013-05-26 10:08:00,
2013-05-26 05:13:00,66.6,64.0,29.91,South,184,0.0,4.0,90,0.00,,,0.00,0,Custom,2013-05-26 10:13:00,
2013-05-26 05:18:00,66.6,64.0,29.91,South,187,0.0,4.0,90,0.00,,,0.00,0,Custom,2013-05-26 10:18:00,
2013-05-26 05:23:00,66.6,64.0,29.91,South,177,0.0,4.0,90,0.00,,,0.00,0,Custom,2013-05-26 10:23:00,
2013-05-26 05:28:00,66.6,64.0,29.92,South,190,0.0,4.0,90,0.00,,,0.00,0,Custom,2013-05-26 10:28:00,
2013-05-26 05:33:00,66.6,64.0,29.92,South,190,0.0,4.0,90,0.00,,,0.00,0,Custom,2013-05-26 10:33:00,
2013-05-26 05:38:00,66.8,64.0,29.92,South,174,3.0,5.0,90,0.00,,,0.00,0,Custom,2013-05-26 10:38:00,
2013-05-26 05:43:00,66.8,64.0,29.92,South,190,0.0,3.0,90,0.00,,,0.00,0,Custom,2013-05-26 10:43:00,
2013-05-26 05:48:00,66.8,64.0,29.91,South,186,0.0,5.0,90,0.00,,,0.00,0,Custom,2013-05-26 10:48:00,
2013-05-26 05:53:00,66.8,64.0,29.91,South,185,0.0,5.0,90,0.00,,,0.00,0,Custom,2013-05-26 10:53:00,
2013-05-26 05:58:00,67.1,64.0,29.91,SSE,163,0.0,7.0,90,0.00,,,0.00,0,Custom,2013-05-26 10:58:00,
2013-05-26 06:03:00,67.3,64.0,29.92,SSW,198,2.0,7.0,89,0.00,,,0.00,0,Custom,2013-05-26 11:03:00,
2013-05-26 06:08:00,67.4,64.0,29.91,South,190,3.0,5.0,89,0.00,,,0.00,0,Custom,2013-05-26 11:08:00,
2013-05-26 06:13:00,67.4,64.0,29.91,South,181,2.0,5.0,89,0.00,,,0.00,0,Custom,2013-05-26 11:13:00,
2013-05-26 06:18:00,67.6,64.0,29.92,South,171,0.0,6.0,89,0.00,,,0.00,10.14,Custom,2013-05-26 11:18:00,
2013-05-26 06:23:00,68.0,65.0,29.91,South,187,0.0,6.0,89,0.00,,,0.00,14.43,Custom,2013-05-26 11:23:00,
2013-05-26 06:28:00,68.1,64.0,29.91,SSW,197,0.0,6.0,88,0.00,,,0.00,19.11,Custom,2013-05-26 11:28:00,
2013-05-26 06:33:00,68.4,65.0,29.92,South,171,0.0,6.0,87,0.00,,,0.00,22.23,Custom,2013-05-26 11:33:00,
2013-05-26 06:38:00,68.4,64.0,29.92,South,191,0.0,5.0,86,0.00,,,0.00,25.35,Custom,2013-05-26 11:38:00,
2013-05-26 06:43:00,68.7,65.0,29.92,South,179,0.0,5.0,87,0.00,,,0.00,27.69,Custom,2013-05-26 11:43:00,
2013-05-26 06:48:00,68.7,65.0,29.92,South,183,0.0,4.0,87,0.00,,,0.00,31.59,Custom,2013-05-26 11:48:00,
2013-05-26 06:53:00,68.7,64.0,29.92,South,170,2.0,6.0,86,0.00,,,0.00,30.03,Custom,2013-05-26 11:53:00,
2013-05-26 06:58:00,68.7,64.0,29.92,South,172,0.0,4.0,86,0.00,,,0.00,30.81,Custom,2013-05-26 11:58:00,
2013-05-26 07:03:00,68.6,64.0,29.92,SSE,150,0.0,6.0,87,0.00,,,0.00,41.34,Custom,2013-05-26 12:03:00,
2013-05-26 07:08:00,68.7,65.0,29.92,South,182,0.0,7.0,87,0.00,,,0.00,47.19,Custom,2013-05-26 12:08:00,
2013-05-26 07:13:00,68.9,65.0,29.92,South,173,0.0,4.0,86,0.00,,,0.00,51.87,Custom,2013-05-26 12:13:00,
2013-05-26 07:18:00,69.1,65.0,29.92,SSW,193,0.0,7.0,86,0.00,,,0.00,60.06,Custom,2013-05-26 12:18:00,
2013-05-26 07:23:00,69.4,65.0,29.92,South,180,5.0,5.0,85,0.00,,,0.00,81.12,Custom,2013-05-26 12:23:00,
2013-05-26 07:28:00,69.6,65.0,29.91,South,169,5.0,5.0,84,0.00,,,0.00,97.89,Custom,2013-05-26 12:28:00,
2013-05-26 07:33:00,69.5,64.0,29.92,South,174,6.0,6.0,84,0.00,,,0.00,102.18,Custom,2013-05-26 12:33:00,
2013-05-26 07:38:00,69.8,65.0,29.91,South,175,0.0,9.0,84,0.00,,,0.00,135.33,Custom,2013-05-26 12:38:00,
2013-05-26 07:43:00,70.4,65.0,29.91,SSW,198,5.0,5.0,82,0.00,,,0.00,147.42,Custom,2013-05-26 12:43:00,
2013-05-26 07:48:00,70.4,64.0,29.91,South,178,3.0,7.0,81,0.00,,,0.00,145.86,Custom,2013-05-26 12:48:00,
2013-05-26 07:53:00,70.7,65.0,29.91,South,191,2.0,5.0,81,0.00,,,0.00,181.74,Custom,2013-05-26 12:53:00,
2013-05-26 07:58:00,71.1,65.0,29.91,South,188,3.0,8.0,82,0.00,,,0.00,221.91,Custom,2013-05-26 12:58:00,
2013-05-26 08:03:00,71.8,65.0,29.91,SSW,197,3.0,7.0,79,0.00,,,0.00,271.05,Custom,2013-05-26 13:03:00,
2013-05-26 08:08:00,72.4,65.0,29.91,South,190,0.0,10.0,78,0.00,,,0.00,223.86,Custom,2013-05-26 13:08:00,
2013-05-26 08:13:00,73.5,66.0,29.91,SSW,202,2.0,7.0,77,0.00,,,0.00,307.71,Custom,2013-05-26 13:13:00,
2013-05-26 08:18:00,73.3,66.0,29.91,South,184,6.0,6.0,77,0.00,,,0.00,273.78,Custom,2013-05-26 13:18:00,
2013-05-26 08:23:00,72.8,66.0,29.91,SSW,203,0.0,11.0,78,0.00,,,0.00,122.07,Custom,2013-05-26 13:23:00,
2013-05-26 08:28:00,72.3,65.0,29.91,South,182,8.0,8.0,79,0.00,,,0.00,109.59,Custom,2013-05-26 13:28:00,
2013-05-26 08:33:00,72.3,66.0,29.91,South,188,0.0,12.0,80,0.00,,,0.00,135.72,Custom,2013-05-26 13:33:00,
2013-05-26 08:38:00,72.3,66.0,29.91,SSW,201,0.0,8.0,80,0.00,,,0.00,143.13,Custom,2013-05-26 13:38:00,
2013-05-26 08:43:00,72.6,66.0,29.91,SSE,167,4.0,9.0,80,0.00,,,0.00,155.22,Custom,2013-05-26 13:43:00,
2013-05-26 08:48:00,73.1,66.0,29.92,South,191,3.0,8.0,79,0.00,,,0.00,218.01,Custom,2013-05-26 13:48:00,
2013-05-26 08:53:00,73.8,66.0,29.92,South,172,0.0,6.0,78,0.00,,,0.00,341.64,Custom,2013-05-26 13:53:00,
2013-05-26 08:58:00,74.5,66.0,29.92,SSW,201,5.0,8.0,75,0.00,,,0.00,246.09,Custom,2013-05-26 13:58:00,
2013-05-26 09:03:00,74.4,66.0,29.92,South,178,4.0,11.0,75,0.00,,,0.00,212.16,Custom,2013-05-26 14:03:00,
2013-05-26 09:08:00,74.8,67.0,29.92,South,181,4.0,8.0,77,0.00,,,0.00,391.95,Custom,2013-05-26 14:08:00,
2013-05-26 09:13:00,75.1,67.0,29.92,South,189,1.0,7.0,75,0.00,,,0.00,304.59,Custom,2013-05-26 14:13:00,
2013-05-26 09:18:00,75.4,67.0,29.93,South,176,0.0,12.0,76,0.00,,,0.00,322.92,Custom,2013-05-26 14:18:00,
2013-05-26 09:23:00,76.2,67.0,29.92,South,191,1.0,8.0,74,0.00,,,0.00,490.23,Custom,2013-05-26 14:23:00,
2013-05-26 09:28:00,76.4,67.0,29.93,South,185,0.0,8.0,72,0.00,,,0.00,286.26,Custom,2013-05-26 14:28:00,
2013-05-26 09:33:00,75.3,66.0,29.93,South,183,0.0,10.0,72,0.00,,,0.00,198.12,Custom,2013-05-26 14:33:00,
2013-05-26 09:38:00,74.9,67.0,29.93,South,185,4.0,7.0,75,0.00,,,0.00,140.01,Custom,2013-05-26 14:38:00,
2013-05-26 09:43:00,74.8,67.0,29.93,South,191,1.0,8.0,77,0.00,,,0.00,189.54,Custom,2013-05-26 14:43:00,
2013-05-26 09:48:00,75.3,68.0,29.93,South,189,0.0,10.0,77,0.00,,,0.00,263.64,Custom,2013-05-26 14:48:00,
2013-05-26 09:53:00,76.1,68.0,29.92,South,187,0.0,8.0,75,0.00,,,0.00,359.58,Custom,2013-05-26 14:53:00,
2013-05-26 09:58:00,77.5,68.0,29.92,South,190,6.0,10.0,72,0.00,,,0.00,720.72,Custom,2013-05-26 14:58:00,
2013-05-26 10:03:00,76.9,67.0,29.91,South,175,4.0,9.0,72,0.00,,,0.00,561.21,Custom,2013-05-26 15:03:00,
2013-05-26 10:08:00,77.4,68.0,29.93,SW,222,7.0,12.0,73,0.00,,,0.00,246.09,Custom,2013-05-26 15:08:00,
2013-05-26 10:13:00,77.7,67.0,29.92,SSE,160,0.0,7.0,71,0.00,,,0.00,232.83,Custom,2013-05-26 15:13:00,
2013-05-26 10:18:00,77.9,68.0,29.91,SSE,164,2.0,9.0,72,0.00,,,0.00,655.98,Custom,2013-05-26 15:18:00,
2013-05-26 10:23:00,77.9,68.0,29.91,South,169,6.0,10.0,71,0.00,,,0.00,317.85,Custom,2013-05-26 15:23:00,
2013-05-26 10:28:00,79.2,69.0,29.91,SSE,165,0.0,12.0,71,0.00,,,0.00,778.83,Custom,2013-05-26 15:28:00,
2013-05-26 10:33:00,79.2,69.0,29.91,SSW,196,0.0,8.0,71,0.00,,,0.00,517.53,Custom,2013-05-26 15:33:00,
2013-05-26 10:38:00,78.6,67.0,29.91,SE,141,3.0,7.0,69,0.00,,,0.00,340.47,Custom,2013-05-26 15:38:00,
2013-05-26 10:43:00,79.7,69.0,29.91,South,184,1.0,8.0,69,0.00,,,0.00,291.33,Custom,2013-05-26 15:43:00,
2013-05-26 10:48:00,79.4,68.0,29.91,South,177,7.0,7.0,70,0.00,,,0.00,976.56,Custom,2013-05-26 15:48:00,
2013-05-26 10:53:00,78.6,68.0,29.91,SSW,192,10.0,11.0,70,0.00,,,0.00,916.5,Custom,2013-05-26 15:53:00,
2013-05-26 10:58:00,79.0,69.0,29.91,South,176,4.0,13.0,70,0.00,,,0.00,273.78,Custom,2013-05-26 15:58:00,
2013-05-26 11:03:00,78.3,68.0,29.91,SSW,199,4.0,8.0,71,0.00,,,0.00,373.23,Custom,2013-05-26 16:03:00,
2013-05-26 11:08:00,78.3,68.0,29.91,South,179,1.0,8.0,71,0.00,,,0.00,276.9,Custom,2013-05-26 16:08:00,
2013-05-26 11:13:00,78.6,68.0,29.91,South,177,3.0,18.0,71,0.00,,,0.00,593.58,Custom,2013-05-26 16:13:00,
2013-05-26 11:18:00,79.8,69.0,29.91,South,170,6.0,9.0,71,0.00,,,0.00,879.45,Custom,2013-05-26 16:18:00,
2013-05-26 11:23:00,80.9,69.0,29.91,South,184,10.0,10.0,67,0.00,,,0.00,368.94,Custom,2013-05-26 16:23:00,
2013-05-26 11:28:00,79.1,67.0,29.91,South,191,9.0,12.0,67,0.00,,,0.00,290.55,Custom,2013-05-26 16:28:00,
2013-05-26 11:33:00,79.4,69.0,29.91,SSE,155,4.0,9.0,71,0.00,,,0.00,277.68,Custom,2013-05-26 16:33:00,
2013-05-26 11:38:00,79.4,68.0,29.91,South,179,0.0,9.0,68,0.00,,,0.00,319.41,Custom,2013-05-26 16:38:00,
2013-05-26 11:43:00,79.4,68.0,29.91,SSE,167,2.0,12.0,67,0.00,,,0.00,1009.71,Custom,2013-05-26 16:43:00,
2013-05-26 11:48:00,80.1,69.0,29.91,SSE,150,0.0,12.0,69,0.00,,,0.00,273.78,Custom,2013-05-26 16:48:00,
2013-05-26 11:53:00,79.3,69.0,29.91,South,188,0.0,10.0,69,0.00,,,0.00,261.69,Custom,2013-05-26 16:53:00,
2013-05-26 11:58:00,79.6,68.0,29.91,South,188,11.0,11.0,68,0.00,,,0.00,297.18,Custom,2013-05-26 16:58:00,
2013-05-26 12:03:00,79.4,68.0,29.91,South,177,3.0,14.0,68,0.00,,,0.00,1098.24,Custom,2013-05-26 17:03:00,
2013-05-26 12:08:00,80.4,69.0,29.91,SSE,156,1.0,14.0,67,0.00,,,0.00,283.92,Custom,2013-05-26 17:08:00,
2013-05-26 12:13:00,79.4,68.0,29.91,SSW,209,5.0,10.0,68,0.00,,,0.00,313.17,Custom,2013-05-26 17:13:00,
2013-05-26 12:18:00,81.0,69.0,29.91,South,169,5.0,15.0,67,0.00,,,0.00,259.35,Custom,2013-05-26 17:18:00,
2013-05-26 12:23:00,81.5,69.0,29.91,SSE,164,5.0,13.0,66,0.00,,,0.00,992.55,Custom,2013-05-26 17:23:00,
2013-05-26 12:28:00,83.1,71.0,29.91,SSE,158,3.0,13.0,66,0.00,,,0.00,297.96,Custom,2013-05-26 17:28:00,
2013-05-26 12:33:00,81.4,68.0,29.91,SSW,210,4.0,13.0,64,0.00,,,0.00,358.8,Custom,2013-05-26 17:33:00,
2013-05-26 12:38:00,81.0,69.0,29.91,South,184,0.0,11.0,67,0.00,,,0.00,1052.61,Custom,2013-05-26 17:38:00,
2013-05-26 12:43:00,82.6,69.0,29.91,South,176,7.0,13.0,63,0.00,,,0.00,560.82,Custom,2013-05-26 17:43:00,
2013-05-26 12:48:00,82.1,68.0,29.91,SSW,202,3.0,9.0,63,0.00,,,0.00,720.33,Custom,2013-05-26 17:48:00,
2013-05-26 12:53:00,81.5,69.0,29.91,SSW,194,3.0,13.0,65,0.00,,,0.00,324.87,Custom,2013-05-26 17:53:00,
2013-05-26 12:58:00,81.4,69.0,29.91,South,176,0.0,8.0,65,0.00,,,0.00,263.64,Custom,2013-05-26 17:58:00,
2013-05-26 13:03:00,80.8,69.0,29.91,South,186,0.0,10.0,67,0.00,,,0.00,239.07,Custom,2013-05-26 18:03:00,
2013-05-26 13:08:00,81.3,69.0,29.91,SSW,199,0.0,11.0,65,0.00,,,0.00,739.44,Custom,2013-05-26 18:08:00,
2013-05-26 13:13:00,81.7,69.0,29.91,SW,229,3.0,8.0,65,0.00,,,0.00,366.6,Custom,2013-05-26 18:13:00,
2013-05-26 13:18:00,80.8,69.0,29.91,SSE,157,4.0,12.0,66,0.00,,,0.00,368.55,Custom,2013-05-26 18:18:00,
2013-05-26 13:23:00,83.4,71.0,29.91,South,188,0.0,11.0,66,0.00,,,0.00,949.65,Custom,2013-05-26 18:23:00,
2013-05-26 13:28:00,82.7,69.0,29.90,South,183,2.0,14.0,63,0.00,,,0.00,1000.35,Custom,2013-05-26 18:28:00,
2013-05-26 13:33:00,83.7,69.0,29.90,South,181,11.0,11.0,61,0.00,,,0.00,269.88,Custom,2013-05-26 18:33:00,
2013-05-26 13:38:00,81.3,68.0,29.89,SSW,199,5.0,12.0,64,0.00,,,0.00,315.51,Custom,2013-05-26 18:38:00,
2013-05-26 13:43:00,85.1,71.0,29.89,South,171,5.0,9.0,63,0.00,,,0.00,447.33,Custom,2013-05-26 18:43:00,
2013-05-26 13:48:00,81.8,68.0,29.90,South,191,4.0,15.0,64,0.00,,,0.00,299.91,Custom,2013-05-26 18:48:00,
2013-05-26 13:53:00,82.9,70.0,29.89,SSE,166,4.0,8.0,64,0.00,,,0.00,494.13,Custom,2013-05-26 18:53:00,
2013-05-26 13:58:00,82.8,69.0,29.89,South,179,1.0,11.0,62,0.00,,,0.00,329.55,Custom,2013-05-26 18:58:00,
2013-05-26 14:03:00,82.7,69.0,29.89,South,175,0.0,12.0,63,0.00,,,0.00,252.72,Custom,2013-05-26 19:03:00,
2013-05-26 14:08:00,83.3,70.0,29.88,WSW,246,4.0,11.0,65,0.00,,,0.00,864.63,Custom,2013-05-26 19:08:00,
2013-05-26 14:13:00,84.1,70.0,29.88,SSE,153,2.0,10.0,62,0.00,,,0.00,808.47,Custom,2013-05-26 19:13:00,
2013-05-26 14:18:00,84.1,70.0,29.88,SSW,197,0.0,9.0,64,0.00,,,0.00,897.78,Custom,2013-05-26 19:18:00,
2013-05-26 14:23:00,84.3,69.0,29.88,SSE,167,0.0,9.0,60,0.00,,,0.00,265.59,Custom,2013-05-26 19:23:00,
2013-05-26 14:28:00,83.1,69.0,29.89,SSW,197,6.0,15.0,62,0.00,,,0.00,316.68,Custom,2013-05-26 19:28:00,
2013-05-26 14:33:00,83.9,70.0,29.88,SSW,210,5.0,13.0,63,0.00,,,0.00,409.89,Custom,2013-05-26 19:33:00,
2013-05-26 14:38:00,84.4,70.0,29.88,South,187,5.0,11.0,61,0.00,,,0.00,412.23,Custom,2013-05-26 19:38:00,
2013-05-26 14:43:00,85.2,71.0,29.88,South,171,3.0,10.0,63,0.00,,,0.00,877.89,Custom,2013-05-26 19:43:00,
2013-05-26 14:48:00,83.4,69.0,29.88,SSW,208,7.0,8.0,62,0.00,,,0.00,365.82,Custom,2013-05-26 19:48:00,
2013-05-26 14:53:00,82.9,69.0,29.87,South,171,5.0,10.0,63,0.00,,,0.00,692.64,Custom,2013-05-26 19:53:00,
2013-05-26 14:58:00,84.5,69.0,29.88,SSE,158,0.0,11.0,61,0.00,,,0.00,599.04,Custom,2013-05-26 19:58:00,
2013-05-26 15:03:00,83.0,69.0,29.88,SSE,164,5.0,7.0,62,0.00,,,0.00,187.59,Custom,2013-05-26 20:03:00,
2013-05-26 15:08:00,82.9,70.0,29.87,South,177,6.0,8.0,65,0.00,,,0.00,603.33,Custom,2013-05-26 20:08:00,
2013-05-26 15:13:00,82.5,69.0,29.87,SE,138,0.0,12.0,64,0.00,,,0.00,616.2,Custom,2013-05-26 20:13:00,
2013-05-26 15:18:00,83.1,69.0,29.87,SSW,209,5.0,12.0,62,0.00,,,0.00,260.52,Custom,2013-05-26 20:18:00,
2013-05-26 15:23:00,83.3,69.0,29.86,SSW,205,4.0,11.0,63,0.00,,,0.00,806.13,Custom,2013-05-26 20:23:00,
2013-05-26 15:28:00,84.4,70.0,29.86,SW,217,4.0,9.0,62,0.00,,,0.00,707.07,Custom,2013-05-26 20:28:00,
2013-05-26 15:33:00,83.8,70.0,29.87,SSW,201,0.0,7.0,63,0.00,,,0.00,265.59,Custom,2013-05-26 20:33:00,
2013-05-26 15:38:00,83.6,70.0,29.86,SSE,153,5.0,12.0,63,0.00,,,0.00,340.86,Custom,2013-05-26 20:38:00,
2013-05-26 15:43:00,84.4,70.0,29.86,South,182,1.0,7.0,62,0.00,,,0.00,749.19,Custom,2013-05-26 20:43:00,
2013-05-26 15:48:00,85.4,71.0,29.86,South,189,3.0,12.0,63,0.00,,,0.00,258.96,Custom,2013-05-26 20:48:00,
2013-05-26 15:53:00,85.1,70.0,29.85,SSW,196,4.0,9.0,62,0.00,,,0.00,620.88,Custom,2013-05-26 20:53:00,
2013-05-26 15:58:00,83.0,69.0,29.85,South,188,6.0,15.0,63,0.00,,,0.00,426.27,Custom,2013-05-26 20:58:00,
2013-05-26 16:03:00,82.9,69.0,29.85,South,189,4.0,12.0,62,0.00,,,0.00,480.48,Custom,2013-05-26 21:03:00,
2013-05-26 16:08:00,83.1,69.0,29.85,South,188,5.0,11.0,63,0.00,,,0.00,463.32,Custom,2013-05-26 21:08:00,
2013-05-26 16:13:00,83.4,69.0,29.85,South,174,4.0,9.0,63,0.00,,,0.00,590.85,Custom,2013-05-26 21:13:00,
2013-05-26 16:18:00,84.2,69.0,29.85,WSW,243,3.0,10.0,60,0.00,,,0.00,553.02,Custom,2013-05-26 21:18:00,
2013-05-26 16:23:00,84.8,69.0,29.85,SSW,209,7.0,9.0,60,0.00,,,0.00,514.8,Custom,2013-05-26 21:23:00,
2013-05-26 16:28:00,83.9,69.0,29.85,SSE,166,7.0,11.0,61,0.00,,,0.00,586.17,Custom,2013-05-26 21:28:00,
2013-05-26 16:33:00,84.9,71.0,29.85,South,172,4.0,11.0,62,0.00,,,0.00,629.46,Custom,2013-05-26 21:33:00,
2013-05-26 16:38:00,84.2,69.0,29.85,South,180,3.0,8.0,60,0.00,,,0.00,551.85,Custom,2013-05-26 21:38:00,
2013-05-26 16:43:00,83.2,68.0,29.85,SW,230,0.0,9.0,61,0.00,,,0.00,309.27,Custom,2013-05-26 21:43:00,
2013-05-26 16:48:00,83.9,69.0,29.85,SSE,167,8.0,8.0,62,0.00,,,0.00,615.42,Custom,2013-05-26 21:48:00,
2013-05-26 16:53:00,82.8,69.0,29.85,South,172,4.0,14.0,62,0.00,,,0.00,624,Custom,2013-05-26 21:53:00,
2013-05-26 16:58:00,84.8,70.0,29.85,South,189,6.0,11.0,62,0.00,,,0.00,561.21,Custom,2013-05-26 21:58:00,
2013-05-26 17:03:00,85.2,70.0,29.85,South,181,6.0,9.0,61,0.00,,,0.00,510.51,Custom,2013-05-26 22:03:00,
2013-05-26 17:08:00,84.2,69.0,29.85,East,89,0.0,10.0,59,0.00,,,0.00,487.89,Custom,2013-05-26 22:08:00,
2013-05-26 17:13:00,84.5,69.0,29.84,SSW,208,0.0,10.0,60,0.00,,,0.00,551.46,Custom,2013-05-26 22:13:00,
2013-05-26 17:18:00,84.4,69.0,29.84,SSE,157,3.0,11.0,60,0.00,,,0.00,467.61,Custom,2013-05-26 22:18:00,
2013-05-26 17:23:00,84.1,69.0,29.84,South,186,3.0,11.0,61,0.00,,,0.00,429.39,Custom,2013-05-26 22:23:00,
2013-05-26 17:28:00,84.1,69.0,29.83,South,178,6.0,10.0,61,0.00,,,0.00,125.97,Custom,2013-05-26 22:28:00,
2013-05-26 17:33:00,83.8,69.0,29.82,South,183,1.0,14.0,62,0.00,,,0.00,99.84,Custom,2013-05-26 22:33:00,
2013-05-26 17:38:00,82.1,68.0,29.82,South,175,10.0,12.0,62,0.00,,,0.00,81.9,Custom,2013-05-26 22:38:00,
2013-05-26 17:43:00,82.0,69.0,29.82,South,181,7.0,10.0,65,0.00,,,0.00,94.77,Custom,2013-05-26 22:43:00,
2013-05-26 17:48:00,82.1,69.0,29.82,South,183,4.0,10.0,66,0.00,,,0.00,109.59,Custom,2013-05-26 22:48:00,
2013-05-26 17:53:00,81.7,68.0,29.82,South,187,6.0,12.0,64,0.00,,,0.00,133.38,Custom,2013-05-26 22:53:00,
2013-05-26 17:58:00,81.4,69.0,29.82,SSW,193,4.0,9.0,65,0.00,,,0.00,102.18,Custom,2013-05-26 22:58:00,
2013-05-26 18:03:00,81.2,69.0,29.82,SSW,193,0.0,11.0,66,0.00,,,0.00,124.8,Custom,2013-05-26 23:03:00,
2013-05-26 18:08:00,81.0,69.0,29.82,South,182,4.0,10.0,66,0.00,,,0.00,122.85,Custom,2013-05-26 23:08:00,
2013-05-26 18:13:00,80.9,68.0,29.82,SSE,162,11.0,11.0,66,0.00,,,0.00,118.95,Custom,2013-05-26 23:13:00,
2013-05-26 18:18:00,80.7,68.0,29.81,SSW,194,3.0,10.0,66,0.00,,,0.00,107.64,Custom,2013-05-26 23:18:00,
2013-05-26 18:23:00,80.7,69.0,29.81,South,187,9.0,9.0,67,0.00,,,0.00,114.27,Custom,2013-05-26 23:23:00,
2013-05-26 18:28:00,80.7,69.0,29.81,South,184,0.0,9.0,67,0.00,,,0.00,109.2,Custom,2013-05-26 23:28:00,
2013-05-26 18:33:00,80.2,68.0,29.81,South,189,0.0,9.0,67,0.00,,,0.00,95.16,Custom,2013-05-26 23:33:00,
2013-05-26 18:38:00,79.9,68.0,29.81,South,182,0.0,8.0,68,0.00,,,0.00,81.12,Custom,2013-05-26 23:38:00,
2013-05-26 18:43:00,79.9,68.0,29.81,SSW,194,2.0,7.0,68,0.00,,,0.00,82.29,Custom,2013-05-26 23:43:00,
2013-05-26 18:48:00,79.8,68.0,29.80,South,175,0.0,6.0,68,0.00,,,0.00,82.29,Custom,2013-05-26 23:48:00,
2013-05-26 18:53:00,79.9,68.0,29.80,SSW,201,0.0,8.0,68,0.00,,,0.00,90.48,Custom,2013-05-26 23:53:00,
2013-05-26 18:58:00,80.0,69.0,29.80,South,181,0.0,5.0,68,0.00,,,0.00,92.43,Custom,2013-05-26 23:58:00,
2013-05-26 19:03:00,79.9,69.0,29.80,South,172,0.0,6.0,69,0.00,,,0.00,81.12,Custom,2013-05-27 00:03:00,
2013-05-26 19:08:00,79.8,69.0,29.81,South,181,0.0,5.0,69,0.00,,,0.00,83.85,Custom,2013-05-27 00:08:00,
2013-05-26 19:13:00,79.8,69.0,29.81,SSE,149,0.0,7.0,70,0.00,,,0.00,86.58,Custom,2013-05-27 00:13:00,
2013-05-26 19:18:00,79.7,69.0,29.80,South,172,0.0,6.0,69,0.00,,,0.00,77.61,Custom,2013-05-27 00:18:00,
2013-05-26 19:23:00,79.6,69.0,29.80,South,173,0.0,5.0,70,0.00,,,0.00,67.47,Custom,2013-05-27 00:23:00,
2013-05-26 19:28:00,79.5,69.0,29.80,South,186,0.0,7.0,70,0.00,,,0.00,55.77,Custom,2013-05-27 00:28:00,
2013-05-26 19:33:00,79.4,69.0,29.80,South,181,11.0,11.0,70,0.00,,,0.00,44.46,Custom,2013-05-27 00:33:00,
2013-05-26 19:38:00,79.3,68.0,29.80,South,186,4.0,10.0,69,0.00,,,0.00,42.51,Custom,2013-05-27 00:38:00,
2013-05-26 19:43:00,79.1,68.0,29.81,SSW,192,2.0,8.0,70,0.00,,,0.00,40.95,Custom,2013-05-27 00:43:00,
2013-05-26 19:48:00,79.0,69.0,29.80,South,180,0.0,8.0,70,0.00,,,0.00,36.66,Custom,2013-05-27 00:48:00,
2013-05-26 19:53:00,78.7,68.0,29.81,South,182,0.0,9.0,70,0.00,,,0.00,32.37,Custom,2013-05-27 00:53:00,
2013-05-26 19:58:00,78.5,68.0,29.81,SSE,167,4.0,6.0,71,0.00,,,0.00,27.69,Custom,2013-05-27 00:58:00,
2013-05-26 20:03:00,78.2,68.0,29.81,SSE,159,0.0,8.0,71,0.00,,,0.00,23.4,Custom,2013-05-27 01:03:00,
2013-05-26 20:08:00,78.0,68.0,29.82,SSW,195,0.0,7.0,71,0.00,,,0.00,19.11,Custom,2013-05-27 01:08:00,
2013-05-26 20:13:00,77.8,68.0,29.82,South,177,0.0,5.0,72,0.00,,,0.00,12.48,Custom,2013-05-27 01:13:00,
2013-05-26 20:18:00,77.6,68.0,29.82,South,181,5.0,10.0,72,0.00,,,0.00,10.53,Custom,2013-05-27 01:18:00,
2013-05-26 20:23:00,77.4,67.0,29.82,South,177,0.0,9.0,72,0.00,,,0.00,7.8,Custom,2013-05-27 01:23:00,
2013-05-26 20:28:00,77.4,68.0,29.82,SSE,154,2.0,7.0,72,0.00,,,0.00,0,Custom,2013-05-27 01:28:00,
2013-05-26 20:33:00,77.0,68.0,29.82,SSE,159,0.0,7.0,73,0.00,,,0.00,0,Custom,2013-05-27 01:33:00,
2013-05-26 20:38:00,76.6,67.0,29.82,South,190,0.0,6.0,73,0.00,,,0.00,0,Custom,2013-05-27 01:38:00,
2013-05-26 20:43:00,76.5,68.0,29.81,South,184,0.0,6.0,74,0.00,,,0.00,0,Custom,2013-05-27 01:43:00,
2013-05-26 20:48:00,76.3,68.0,29.81,South,187,0.0,5.0,74,0.00,,,0.00,0,Custom,2013-05-27 01:48:00,
2013-05-26 20:53:00,76.0,67.0,29.81,South,188,0.0,10.0,75,0.00,,,0.00,0,Custom,2013-05-27 01:53:00,
2013-05-26 20:58:00,76.0,68.0,29.82,South,185,9.0,10.0,76,0.00,,,0.00,0,Custom,2013-05-27 01:58:00,
2013-05-26 21:03:00,76.1,68.0,29.82,South,188,6.0,10.0,75,0.00,,,0.00,0,Custom,2013-05-27 02:03:00,
2013-05-26 21:08:00,76.1,68.0,29.82,South,191,0.0,9.0,75,0.00,,,0.00,0,Custom,2013-05-27 02:08:00,
2013-05-26 21:13:00,75.9,67.0,29.82,South,187,6.0,9.0,75,0.00,,,0.00,0,Custom,2013-05-27 02:13:00,
2013-05-26 21:18:00,75.9,67.0,29.82,South,189,4.0,10.0,75,0.00,,,0.00,0,Custom,2013-05-27 02:18:00,
2013-05-26 21:23:00,75.7,67.0,29.82,South,190,0.0,9.0,75,0.00,,,0.00,0,Custom,2013-05-27 02:23:00,
2013-05-26 21:28:00,75.6,67.0,29.83,South,186,3.0,6.0,75,0.00,,,0.00,0,Custom,2013-05-27 02:28:00,
2013-05-26 21:33:00,75.5,67.0,29.83,South,186,0.0,10.0,75,0.00,,,0.00,0,Custom,2013-05-27 02:33:00,
2013-05-26 21:38:00,75.2,67.0,29.83,SE,133,0.0,7.0,76,0.00,,,0.00,0,Custom,2013-05-27 02:38:00,
2013-05-26 21:43:00,75.2,67.0,29.84,SSE,164,0.0,6.0,76,0.00,,,0.00,0,Custom,2013-05-27 02:43:00,
2013-05-26 21:48:00,75.0,67.0,29.84,SSW,197,0.0,8.0,76,0.00,,,0.00,0,Custom,2013-05-27 02:48:00,
2013-05-26 21:53:00,75.1,67.0,29.84,SSW,203,7.0,7.0,76,0.00,,,0.00,0,Custom,2013-05-27 02:53:00,
2013-05-26 21:58:00,75.1,67.0,29.84,South,178,5.0,7.0,76,0.00,,,0.00,0,Custom,2013-05-27 02:58:00,
2013-05-26 22:03:00,74.8,67.0,29.85,South,180,0.0,5.0,76,0.00,,,0.00,0,Custom,2013-05-27 03:03:00,
2013-05-26 22:08:00,74.6,67.0,29.85,South,191,0.0,5.0,77,0.00,,,0.00,0,Custom,2013-05-27 03:08:00,
2013-05-26 22:13:00,74.7,67.0,29.85,South,176,0.0,5.0,76,0.00,,,0.00,0,Custom,2013-05-27 03:13:00,
2013-05-26 22:18:00,74.7,67.0,29.85,SSW,192,0.0,5.0,76,0.00,,,0.00,0,Custom,2013-05-27 03:18:00,
2013-05-26 22:23:00,74.8,67.0,29.85,SSW,194,0.0,5.0,76,0.00,,,0.00,0,Custom,2013-05-27 03:23:00,
2013-05-26 22:28:00,74.2,66.0,29.85,SSW,194,0.0,3.0,77,0.00,,,0.00,0,Custom,2013-05-27 03:28:00,
2013-05-26 22:33:00,74.6,67.0,29.85,SSW,193,0.0,6.0,76,0.00,,,0.00,0,Custom,2013-05-27 03:33:00,
2013-05-26 22:38:00,74.3,66.0,29.85,ESE,102,1.0,4.0,75,0.00,,,0.00,0,Custom,2013-05-27 03:38:00,
2013-05-26 22:43:00,74.2,66.0,29.85,SE,138,0.0,1.0,76,0.00,,,0.00,0,Custom,2013-05-27 03:43:00,
2013-05-26 22:48:00,74.3,66.0,29.85,ESE,110,0.0,3.0,76,0.00,,,0.00,0,Custom,2013-05-27 03:48:00,
2013-05-26 22:53:00,74.2,66.0,29.86,SSE,151,0.0,3.0,76,0.00,,,0.00,0,Custom,2013-05-27 03:53:00,
2013-05-26 22:58:00,73.7,66.0,29.85,SSE,160,0.0,3.0,76,0.00,,,0.00,0,Custom,2013-05-27 03:58:00,
2013-05-26 23:01:00,73.7,66.0,29.85,SSW,193,0.0,5.0,77,0.00,,,0.00,0,Custom,2013-05-27 04:01:00,
2013-05-26 23:03:00,73.6,66.0,29.85,South,185,0.0,5.0,77,0.00,,,0.00,0,Custom,2013-05-27 04:03:00,
2013-05-26 23:04:00,73.6,66.0,29.85,South,186,0.0,5.0,77,0.00,,,0.00,0,Custom,2013-05-27 04:04:00,
2013-05-26 23:06:00,73.6,66.0,29.85,SSE,159,0.0,5.0,77,0.00,,,0.00,0,Custom,2013-05-27 04:06:00,
2013-05-26 23:11:00,73.1,66.0,29.85,South,187,0.0,5.0,78,0.00,,,0.00,0,Custom,2013-05-27 04:11:00,
2013-05-26 23:16:00,72.8,66.0,29.85,South,182,3.0,3.0,78,0.00,,,0.00,0,Custom,2013-05-27 04:16:00,
2013-05-26 23:21:00,72.8,66.0,29.85,South,182,0.0,3.0,79,0.00,,,0.00,0,Custom,2013-05-27 04:21:00,
2013-05-26 23:26:00,72.5,66.0,29.85,South,182,0.0,5.0,80,0.00,,,0.00,0,Custom,2013-05-27 04:26:00,
2013-05-26 23:31:00,72.4,66.0,29.84,South,182,0.0,3.0,80,0.00,,,0.00,0,Custom,2013-05-27 04:31:00,
2013-05-26 23:36:00,72.3,66.0,29.84,South,186,0.0,4.0,80,0.00,,,0.00,0,Custom,2013-05-27 04:36:00,
2013-05-26 23:41:00,72.2,65.0,29.84,South,184,5.0,5.0,80,0.00,,,0.00,0,Custom,2013-05-27 04:41:00,
2013-05-26 23:46:00,72.3,66.0,29.84,South,186,4.0,7.0,80,0.00,,,0.00,0,Custom,2013-05-27 04:46:00,
2013-05-26 23:51:00,72.0,65.0,29.83,South,186,4.0,4.0,80,0.00,,,0.00,0,Custom,2013-05-27 04:51:00,
2013-05-26 23:56:00,72.1,65.0,29.83,South,180,2.0,7.0,79,0.00,,,0.00,0,Custom,2013-05-27 04:56:00,